| time (UTC) | temp C | wind direction | speed KPH | gust KPH | rain 1hr cm | rain 24hr cm | rain mn cm | humidity % | barometer mb |
| 20260504033746 | 16 | 263 | 11.3 | 14.5 | 0.00 | 0.00 | 0.00 | 54 | 1010.3 |
| 20260504033243 | 17 | 277 | 8.0 | 9.7 | 0.00 | 0.00 | 0.00 | 55 | 1010.2 |
| 20260504032740 | 17 | 251 | 4.8 | 8.0 | 0.00 | 0.00 | 0.00 | 54 | 1010.2 |
| 20260504032237 | 17 | 264 | 8.0 | 11.3 | 0.00 | 0.00 | 0.00 | 54 | 1010.2 |
| 20260504031733 | 17 | 267 | 6.4 | 9.7 | 0.00 | 0.00 | 0.00 | 54 | 1010.0 |
| 20260504031232 | 17 | 254 | 9.7 | 11.3 | 0.00 | 0.00 | 0.00 | 53 | 1009.8 |
| 20260504030727 | 17 | 247 | 8.0 | 9.7 | 0.00 | 0.00 | 0.00 | 53 | 1009.8 |
| 20260504030225 | 17 | 259 | 8.0 | 9.7 | 0.00 | 0.00 | 0.00 | 53 | 1009.9 |
| 20260504025721 | 18 | 242 | 9.7 | 12.9 | 0.00 | 0.00 | 0.00 | 53 | 1009.8 |
| 20260504025218 | 18 | 296 | 11.3 | 12.9 | 0.00 | 0.00 | 0.00 | 53 | 1009.6 |
| 20260504024715 | 18 | 282 | 9.7 | 12.9 | 0.00 | 0.00 | 0.00 | 52 | 1009.4 |
| 20260504024211 | 18 | 283 | 6.4 | 8.0 | 0.00 | 0.00 | 0.00 | 53 | 1009.4 |
| 20260504023708 | 18 | 249 | 8.0 | 9.7 | 0.00 | 0.00 | 0.00 | 52 | 1009.3 |
| 20260504023204 | 19 | 267 | 8.0 | 9.7 | 0.00 | 0.00 | 0.00 | 53 | 1009.3 |
| 20260504022700 | 19 | 247 | 6.4 | 8.0 | 0.00 | 0.00 | 0.00 | 52 | 1009.2 |
| 20260504022156 | 20 | 241 | 8.0 | 11.3 | 0.00 | 0.00 | 0.00 | 51 | 1009.1 |
| 20260504021655 | 20 | 257 | 11.3 | 14.5 | 0.00 | 0.00 | 0.00 | 51 | 1008.8 |
| 20260504021151 | 20 | 242 | 8.0 | 9.7 | 0.00 | 0.00 | 0.00 | 51 | 1008.9 |
| 20260504020648 | 20 | 255 | 9.7 | 11.3 | 0.00 | 0.00 | 0.00 | 51 | 1008.8 |
| 20260504020144 | 21 | 261 | 14.5 | 17.7 | 0.00 | 0.00 | 0.00 | 50 | 1008.7 |
| 20260504015641 | 21 | 256 | 8.0 | 9.7 | 0.00 | 0.00 | 0.00 | 49 | 1008.7 |
| 20260504015137 | 22 | 260 | 3.2 | 3.2 | 0.00 | 0.00 | 0.00 | 49 | 1008.5 |
| 20260504014632 | 22 | 276 | 1.6 | 1.6 | 0.00 | 0.00 | 0.00 | 48 | 1008.7 |
| 20260504014130 | 22 | 254 | 3.2 | 3.2 | 0.00 | 0.00 | 0.00 | 47 | 1008.7 |
| 20260504013628 | 22 | 247 | 3.2 | 3.2 | 0.00 | 0.00 | 0.00 | 48 | 1008.7 |
| 20260504013124 | 22 | 7 | 0.0 | 0.0 | 0.00 | 0.00 | 0.00 | 46 | 1008.5 |
| 20260504012622 | 22 | 30 | 0.0 | 1.6 | 0.00 | 0.00 | 0.00 | 44 | 1008.6 |
| 20260504012120 | 22 | 41 | 0.0 | 0.0 | 0.00 | 0.00 | 0.00 | 44 | 1008.7 |
| 20260504011616 | 23 | 323 | 0.0 | 0.0 | 0.00 | 0.00 | 0.00 | 44 | 1008.6 |
| 20260504011112 | 23 | 47 | 0.0 | 1.6 | 0.00 | 0.00 | 0.00 | 43 | 1008.7 |
| 20260504010608 | 23 | 253 | 1.6 | 1.6 | 0.00 | 0.00 | 0.00 | 44 | 1008.6 |
| 20260504010104 | 23 | 266 | 3.2 | 3.2 | 0.00 | 0.00 | 0.00 | 42 | 1008.7 |
| 20260504005601 | 23 | 260 | 1.6 | 3.2 | 0.00 | 0.00 | 0.00 | 41 | 1008.7 |
| 20260504005058 | 23 | 261 | 4.8 | 6.4 | 0.00 | 0.00 | 0.00 | 42 | 1008.5 |
| 20260504004556 | 24 | 236 | 0.0 | 1.6 | 0.00 | 0.00 | 0.00 | 40 | 1008.6 |
| 20260504004053 | 25 | 247 | 3.2 | 3.2 | 0.00 | 0.00 | 0.00 | 39 | 1008.6 |
| 20260504003549 | 24 | 267 | 1.6 | 1.6 | 0.00 | 0.00 | 0.00 | 39 | 1008.5 |
| 20260504003046 | 23 | 260 | 0.0 | 1.6 | 0.00 | 0.00 | 0.00 | 39 | 1008.7 |
| 20260504002543 | 23 | 253 | 4.8 | 6.4 | 0.00 | 0.00 | 0.00 | 39 | 1008.7 |
| 20260504002040 | 23 | 238 | 4.8 | 6.4 | 0.00 | 0.00 | 0.00 | 41 | 1008.8 |
| 20260504001538 | 23 | 240 | 4.8 | 6.4 | 0.00 | 0.00 | 0.00 | 40 | 1008.6 |
| 20260504001034 | 23 | 18 | 3.2 | 6.4 | 0.00 | 0.00 | 0.00 | 39 | 1008.7 |
| 20260504000531 | 23 | 24 | 1.6 | 1.6 | 0.00 | 0.00 | 0.00 | 40 | 1008.8 |
| 20260504000029 | 23 | 253 | 4.8 | 6.4 | 0.00 | 0.00 | 0.00 | 43 | 1009.1 |
| 20260503235527 | 23 | 269 | 1.6 | 1.6 | 0.00 | 0.00 | 0.00 | 42 | 1008.8 |
| 20260503235023 | 23 | 224 | 3.2 | 3.2 | 0.00 | 0.00 | 0.00 | 42 | 1009.0 |
| 20260503234521 | 23 | 345 | 0.0 | 0.0 | 0.00 | 0.00 | 0.00 | 41 | 1008.9 |
| 20260503234019 | 23 | 234 | 4.8 | 6.4 | 0.00 | 0.00 | 0.00 | 42 | 1008.9 |
| 20260503233515 | 23 | 251 | 0.0 | 0.0 | 0.00 | 0.00 | 0.00 | 41 | 1009.1 |
| 20260503233011 | 23 | 305 | 3.2 | 3.2 | 0.00 | 0.00 | 0.00 | 41 | 1009.0 |
| 20260503232508 | 23 | 265 | 6.4 | 6.4 | 0.00 | 0.00 | 0.00 | 43 | 1009.0 |
| 20260503232006 | 23 | 317 | 3.2 | 3.2 | 0.00 | 0.00 | 0.00 | 42 | 1009.0 |
| 20260503231504 | 23 | 250 | 3.2 | 6.4 | 0.00 | 0.00 | 0.00 | 43 | 1009.0 |
| 20260503231000 | 23 | 285 | 4.8 | 6.4 | 0.00 | 0.00 | 0.00 | 44 | 1009.0 |
| 20260503230457 | 23 | 234 | 0.0 | 1.6 | 0.00 | 0.00 | 0.00 | 45 | 1009.1 |
| 20260503225954 | 23 | 287 | 0.0 | 0.0 | 0.00 | 0.00 | 0.00 | 43 | 1009.0 |
| 20260503225451 | 22 | 243 | 3.2 | 3.2 | 0.00 | 0.00 | 0.00 | 44 | 1009.2 |
| 20260503224946 | 22 | 329 | 0.0 | 0.0 | 0.00 | 0.00 | 0.00 | 46 | 1009.2 |
| 20260503224444 | 22 | 23 | 0.0 | 0.0 | 0.00 | 0.00 | 0.00 | 48 | 1009.2 |
| 20260503223941 | 22 | 279 | 1.6 | 3.2 | 0.00 | 0.00 | 0.00 | 45 | 1009.5 |
| 20260503223439 | 23 | 314 | 1.6 | 1.6 | 0.00 | 0.00 | 0.00 | 45 | 1009.4 |
| 20260503222934 | 23 | 24 | 1.6 | 1.6 | 0.00 | 0.00 | 0.00 | 43 | 1009.3 |
| 20260503222433 | 23 | 29 | 0.0 | 1.6 | 0.00 | 0.00 | 0.00 | 44 | 1009.5 |
| 20260503221931 | 22 | 35 | 1.6 | 1.6 | 0.00 | 0.00 | 0.00 | 44 | 1009.5 |
| 20260503221429 | 22 | 286 | 6.4 | 8.0 | 0.00 | 0.00 | 0.00 | 46 | 1009.8 |
| 20260503220925 | 22 | 258 | 1.6 | 1.6 | 0.00 | 0.00 | 0.00 | 47 | 1009.8 |
| 20260503220422 | 22 | 253 | 3.2 | 3.2 | 0.00 | 0.00 | 0.00 | 47 | 1009.6 |
| 20260503215919 | 21 | 260 | 4.8 | 6.4 | 0.00 | 0.00 | 0.00 | 49 | 1009.9 |
| 20260503215416 | 21 | 281 | 1.6 | 1.6 | 0.00 | 0.00 | 0.00 | 48 | 1010.0 |
| 20260503214914 | 21 | 29 | 0.0 | 0.0 | 0.00 | 0.00 | 0.00 | 48 | 1009.7 |
| 20260503214411 | 21 | 254 | 3.2 | 3.2 | 0.00 | 0.00 | 0.00 | 49 | 1009.9 |
| 20260503213908 | 21 | 331 | 0.0 | 0.0 | 0.00 | 0.00 | 0.00 | 48 | 1010.0 |
| 20260503213406 | 21 | 257 | 0.0 | 1.6 | 0.00 | 0.00 | 0.00 | 49 | 1009.8 |
| 20260503212902 | 21 | 250 | 4.8 | 6.4 | 0.00 | 0.00 | 0.00 | 48 | 1010.0 |
| 20260503212400 | 21 | 228 | 4.8 | 6.4 | 0.00 | 0.00 | 0.00 | 48 | 1010.2 |
| 20260503211857 | 21 | 319 | 1.6 | 1.6 | 0.00 | 0.00 | 0.00 | 48 | 1010.1 |
| 20260503211354 | 21 | 9 | 0.0 | 0.0 | 0.00 | 0.00 | 0.00 | 47 | 1010.1 |
| 20260503210848 | 22 | 276 | 4.8 | 6.4 | 0.00 | 0.00 | 0.00 | 45 | 1010.2 |
| 20260503210347 | 21 | 257 | 3.2 | 3.2 | 0.00 | 0.00 | 0.00 | 48 | 1010.1 |
| 20260503205841 | 20 | 255 | 1.6 | 1.6 | 0.00 | 0.00 | 0.00 | 50 | 1010.2 |
| 20260503205339 | 21 | 242 | 3.2 | 3.2 | 0.00 | 0.00 | 0.00 | 49 | 1010.2 |
| 20260503204835 | 20 | 233 | 6.4 | 8.0 | 0.00 | 0.00 | 0.00 | 51 | 1010.3 |
| 20260503204332 | 20 | 271 | 3.2 | 3.2 | 0.00 | 0.00 | 0.00 | 51 | 1010.3 |
| 20260503203829 | 21 | 353 | 1.6 | 1.6 | 0.00 | 0.00 | 0.00 | 48 | 1010.2 |
| 20260503203327 | 21 | 257 | 0.0 | 1.6 | 0.00 | 0.00 | 0.00 | 49 | 1010.3 |
| 20260503202824 | 21 | 269 | 6.4 | 8.0 | 0.00 | 0.00 | 0.00 | 48 | 1010.6 |
| 20260503202322 | 21 | 27 | 1.6 | 3.2 | 0.00 | 0.00 | 0.00 | 47 | 1010.5 |
| 20260503201820 | 21 | 15 | 1.6 | 1.6 | 0.00 | 0.00 | 0.00 | 47 | 1010.3 |
| 20260503201316 | 20 | 47 | 1.6 | 1.6 | 0.00 | 0.00 | 0.00 | 48 | 1010.6 |
| 20260503200814 | 20 | 258 | 4.8 | 6.4 | 0.00 | 0.00 | 0.00 | 50 | 1010.8 |
| 20260503200309 | 21 | 253 | 6.4 | 8.0 | 0.00 | 0.00 | 0.00 | 49 | 1010.6 |
| 20260503195807 | 21 | 33 | 4.8 | 6.4 | 0.00 | 0.00 | 0.00 | 48 | 1010.8 |
| 20260503195304 | 21 | 245 | 4.8 | 6.4 | 0.00 | 0.00 | 0.00 | 46 | 1010.9 |
| 20260503194801 | 20 | 301 | 4.8 | 6.4 | 0.00 | 0.00 | 0.00 | 50 | 1011.1 |
| 20260503194256 | 20 | 271 | 3.2 | 3.2 | 0.00 | 0.00 | 0.00 | 51 | 1011.3 |
| 20260503193753 | 21 | 244 | 3.2 | 3.2 | 0.00 | 0.00 | 0.00 | 48 | 1011.1 |
| 20260503193249 | 20 | 317 | 0.0 | 1.6 | 0.00 | 0.00 | 0.00 | 49 | 1011.1 |
| 20260503192745 | 21 | 267 | 4.8 | 8.0 | 0.00 | 0.00 | 0.00 | 48 | 1011.2 |
| 20260503192240 | 21 | 285 | 4.8 | 6.4 | 0.00 | 0.00 | 0.00 | 48 | 1011.1 |
| 20260503191737 | 21 | 232 | 6.4 | 8.0 | 0.00 | 0.00 | 0.00 | 48 | 1011.5 |
| 20260503191234 | 21 | 16 | 4.8 | 6.4 | 0.00 | 0.00 | 0.00 | 48 | 1011.2 |
| 20260503190731 | 21 | 238 | 3.2 | 3.2 | 0.00 | 0.00 | 0.00 | 49 | 1011.5 |
| 20260503190228 | 20 | 40 | 3.2 | 6.4 | 0.00 | 0.00 | 0.00 | 49 | 1011.5 |
| 20260503185725 | 20 | 13 | 3.2 | 6.4 | 0.00 | 0.00 | 0.00 | 48 | 1011.5 |
| 20260503185220 | 20 | 2 | 3.2 | 3.2 | 0.00 | 0.00 | 0.00 | 48 | 1011.6 |
| 20260503184715 | 20 | 9 | 3.2 | 3.2 | 0.00 | 0.00 | 0.00 | 49 | 1011.4 |
| 20260503184212 | 20 | 269 | 4.8 | 8.0 | 0.00 | 0.00 | 0.00 | 51 | 1011.5 |
| 20260503183708 | 20 | 322 | 0.0 | 0.0 | 0.00 | 0.00 | 0.00 | 50 | 1011.7 |
| 20260503183206 | 20 | 2 | 1.6 | 1.6 | 0.00 | 0.00 | 0.00 | 49 | 1011.6 |
| 20260503182704 | 20 | 253 | 4.8 | 6.4 | 0.00 | 0.00 | 0.00 | 50 | 1011.6 |
| 20260503182202 | 20 | 222 | 0.0 | 0.0 | 0.00 | 0.00 | 0.00 | 53 | 1011.6 |
| 20260503181658 | 20 | 136 | 1.6 | 1.6 | 0.00 | 0.00 | 0.00 | 50 | 1011.8 |
| 20260503181155 | 20 | 298 | 0.0 | 1.6 | 0.00 | 0.00 | 0.00 | 52 | 1011.8 |
| 20260503180652 | 20 | 259 | 4.8 | 6.4 | 0.00 | 0.00 | 0.00 | 52 | 1011.8 |
| 20260503180150 | 19 | 253 | 4.8 | 8.0 | 0.00 | 0.00 | 0.00 | 53 | 1011.7 |
| 20260503175647 | 19 | 243 | 0.0 | 0.0 | 0.00 | 0.00 | 0.00 | 52 | 1011.7 |
| 20260503175144 | 18 | 271 | 1.6 | 1.6 | 0.00 | 0.00 | 0.00 | 53 | 1011.7 |
| 20260503174640 | 18 | 277 | 6.4 | 8.0 | 0.00 | 0.00 | 0.00 | 53 | 1011.5 |
| 20260503174138 | 18 | 276 | 4.8 | 6.4 | 0.00 | 0.00 | 0.00 | 55 | 1011.6 |
| 20260503173632 | 18 | 236 | 4.8 | 6.4 | 0.00 | 0.00 | 0.00 | 55 | 1011.4 |
| 20260503173129 | 18 | 247 | 8.0 | 8.0 | 0.00 | 0.00 | 0.00 | 55 | 1011.8 |
| 20260503172626 | 18 | 27 | 3.2 | 3.2 | 0.00 | 0.00 | 0.00 | 55 | 1011.5 |
| 20260503172124 | 18 | 228 | 4.8 | 6.4 | 0.00 | 0.00 | 0.00 | 55 | 1011.4 |
| 20260503171620 | 17 | 259 | 4.8 | 8.0 | 0.00 | 0.00 | 0.00 | 57 | 1011.7 |
| 20260503171117 | 18 | 251 | 4.8 | 6.4 | 0.00 | 0.00 | 0.00 | 56 | 1011.5 |
| 20260503170615 | 18 | 243 | 1.6 | 3.2 | 0.00 | 0.00 | 0.00 | 57 | 1011.5 |
| 20260503170111 | 17 | 270 | 3.2 | 6.4 | 0.00 | 0.00 | 0.00 | 60 | 1011.4 |
| 20260503151006 | 14 | 24 | 3.2 | 3.2 | 0.00 | 0.00 | 0.00 | 72 | 1011.0 |
| 20260503150503 | 13 | 19 | 1.6 | 1.6 | 0.00 | 0.00 | 0.00 | 74 | 1010.9 |
| 20260503131355 | 12 | 273 | 1.6 | 1.6 | 0.00 | 0.00 | 0.00 | 81 | 1009.1 |
| 20260503130853 | 12 | 269 | 0.0 | 0.0 | 0.00 | 0.00 | 0.00 | 81 | 1009.0 |
| 20260503130350 | 12 | 252 | 0.0 | 0.0 | 0.00 | 0.00 | 0.00 | 81 | 1008.8 |
| 20260503110744 | 13 | 305 | 1.6 | 3.2 | 0.00 | 0.00 | 0.00 | 78 | 1008.3 |
| 20260503110241 | 13 | 270 | 3.2 | 3.2 | 0.00 | 0.00 | 0.00 | 78 | 1008.5 |
| 20260503100208 | 13 | 322 | 0.0 | 1.6 | 0.00 | 0.00 | 0.00 | 76 | 1008.1 |
| 20260503090132 | 15 | 25 | 4.8 | 8.0 | 0.00 | 0.00 | 0.00 | 74 | 1008.1 |
| 20260503081602 | 15 | 255 | 3.2 | 3.2 | 0.00 | 0.00 | 0.00 | 72 | 1008.5 |
| 20260503081059 | 15 | 239 | 3.2 | 3.2 | 0.00 | 0.00 | 0.00 | 71 | 1008.5 |
| 20260503080554 | 16 | 238 | 4.8 | 8.0 | 0.00 | 0.00 | 0.00 | 70 | 1008.5 |
| 20260503072529 | 16 | 258 | 1.6 | 1.6 | 0.00 | 0.00 | 0.00 | 70 | 1008.4 |
| 20260503072026 | 16 | 276 | 3.2 | 6.4 | 0.00 | 0.00 | 0.00 | 70 | 1008.5 |
| 20260503071523 | 17 | 233 | 1.6 | 3.2 | 0.00 | 0.00 | 0.00 | 70 | 1008.3 |
| 20260503071019 | 17 | 242 | 4.8 | 6.4 | 0.00 | 0.00 | 0.00 | 70 | 1008.4 |
| 20260503070516 | 17 | 270 | 1.6 | 1.6 | 0.00 | 0.00 | 0.00 | 70 | 1008.3 |
| 20260503054940 | 18 | 210 | 3.2 | 3.2 | 0.00 | 0.00 | 0.00 | 67 | 1008.2 |
| 20260503054436 | 18 | 258 | 3.2 | 6.4 | 0.00 | 0.00 | 0.00 | 67 | 1008.2 |
| 20260503053934 | 18 | 260 | 8.0 | 9.7 | 0.00 | 0.00 | 0.00 | 66 | 1008.3 |
| 20260503053431 | 18 | 282 | 4.8 | 6.4 | 0.00 | 0.00 | 0.00 | 66 | 1008.3 |
| 20260503052927 | 19 | 248 | 4.8 | 8.0 | 0.00 | 0.00 | 0.00 | 66 | 1008.2 |
| 20260503052425 | 19 | 244 | 3.2 | 3.2 | 0.00 | 0.00 | 0.00 | 65 | 1008.4 |
| 20260503051921 | 19 | 323 | 1.6 | 3.2 | 0.00 | 0.00 | 0.00 | 65 | 1008.2 |
| 20260503051417 | 19 | 240 | 6.4 | 8.0 | 0.00 | 0.00 | 0.00 | 65 | 1008.3 |
| 20260503050915 | 20 | 224 | 3.2 | 3.2 | 0.00 | 0.00 | 0.00 | 65 | 1008.0 |
| 20260503050410 | 20 | 298 | 3.2 | 3.2 | 0.00 | 0.00 | 0.00 | 63 | 1008.2 |
| 20260503045908 | 20 | 257 | 1.6 | 3.2 | 0.00 | 0.00 | 0.00 | 63 | 1008.1 |
| 20260503045406 | 20 | 244 | 3.2 | 3.2 | 0.00 | 0.00 | 0.00 | 63 | 1008.1 |
| 20260503044902 | 20 | 246 | 3.2 | 3.2 | 0.00 | 0.00 | 0.00 | 63 | 1008.3 |
| 20260503044359 | 20 | 262 | 3.2 | 3.2 | 0.00 | 0.00 | 0.00 | 62 | 1008.1 |
| 20260503043856 | 20 | 290 | 3.2 | 3.2 | 0.00 | 0.00 | 0.00 | 62 | 1007.9 |
| 20260503043353 | 20 | 243 | 1.6 | 1.6 | 0.00 | 0.00 | 0.00 | 62 | 1007.8 |
| 20260503042849 | 20 | 207 | 3.2 | 3.2 | 0.00 | 0.00 | 0.00 | 60 | 1007.9 |
| 20260503042346 | 21 | 235 | 1.6 | 1.6 | 0.00 | 0.00 | 0.00 | 60 | 1007.6 |
| 20260503041842 | 21 | 253 | 0.0 | 1.6 | 0.00 | 0.00 | 0.00 | 59 | 1007.6 |
| 20260503041340 | 21 | 117 | 0.0 | 1.6 | 0.00 | 0.00 | 0.00 | 58 | 1007.7 |
| 20260503040837 | 21 | 257 | 1.6 | 3.2 | 0.00 | 0.00 | 0.00 | 58 | 1007.6 |
| 20260503040335 | 21 | 242 | 4.8 | 9.7 | 0.00 | 0.00 | 0.00 | 57 | 1007.6 |
| 20260503035831 | 21 | 27 | 3.2 | 3.2 | 0.00 | 0.00 | 0.00 | 57 | 1007.4 |
| 20260503035328 | 21 | 295 | 1.6 | 1.6 | 0.00 | 0.00 | 0.00 | 57 | 1007.4 |
| 20260503034825 | 22 | 219 | 1.6 | 1.6 | 0.00 | 0.00 | 0.00 | 57 | 1007.0 |
| 20260503034323 | 22 | 244 | 3.2 | 3.2 | 0.00 | 0.00 | 0.00 | 58 | 1007.0 |